Gallup, NM

6:04 PM MDT on July 20, 2017 (GMT -0600)
Gallup Municipal

Weather History for KGUP - May, 2013

Change the Weather History Date:

Monday, May 27, 2013

  Actual Average Record
Temperature  
Mean Temperature 54 °F -  
Max Temperature 73 °F 79 °F 89 °F (1974)
Min Temperature 34 °F 36 °F 24 °F (2012)
Degree Days  
Heating Degree Days 12    
Growing Degree Days 4 (Base 50)    
Moisture  
Dew Point 10 °F    
Average Humidity 17    
Maximum Humidity 29    
Minimum Humidity 9    
Precipitation  
Precipitation 0.00 in - - ()
Sea Level Pressure  
Sea Level Pressure 29.74 in    
Wind  
Wind Speed 7 mph (SW)    
Max Wind Speed 16 mph    
Max Gust Speed 26 mph    
Visibility 10 miles    
Events      
Averages and records for this station are not official NWS values.
T = Trace of Precipitation, MM = Missing Value Source: NWS Daily Summary

Daily Weather History Graph

Daily Weather History Graph

Search for Another Location

Airport or City:

Trip Planner

Search our weather history database for the weather conditions in past years. The results will help you decide how hot, cold, wet, or windy it might be!

Date:

Astronomy

May. 27, 2013 Rise Set
Actual Time 6:02 AM MDT 8:22 PM MDT
Civil Twilight 5:33 AM MDT 8:51 PM MDT
Nautical Twilight 4:57 AM MDT 9:27 PM MDT
Astronomical Twilight 4:18 AM MDT 10:06 PM MDT
Moon 11:06 PM MDT (5/27) 8:42 AM MDT (5/27)
Length of Visible Light 15h 17m
Length of Day
14h 19m
Waning Gibbous, 90% of the Moon is Illuminated
May 27
Waning Gibbous
May 31
Last Quarter
Jun 8
New
Jun 16
First Quarter
Jun 23
Full

Hourly Weather History & Observations

Time (MDT) Temp. Windchill Dew Point Humidity Pressure Visibility Wind Dir Wind Speed Gust Speed Precip Events Conditions
12:53 AM 54.0 °F - 5.0 °F 14% 29.73 in 10.0 mi SSW 8.1 mph - N/A   Clear
1:53 AM 50.0 °F - 6.1 °F 17% 29.72 in 10.0 mi Calm Calm - N/A   Clear
2:53 AM 43.0 °F - 5.0 °F 21% 29.78 in 10.0 mi Calm Calm - N/A   Clear
3:53 AM 34.0 °F 29.8 °F 1.0 °F 25% 29.83 in 10.0 mi NE 4.6 mph - N/A   Clear
4:53 AM 37.0 °F 34.5 °F 5.0 °F 26% 29.82 in 10.0 mi ENE 3.5 mph - N/A   Clear
5:53 AM 36.0 °F 33.3 °F 6.1 °F 29% 29.83 in 10.0 mi East 3.5 mph - N/A   Clear
6:53 AM 39.0 °F 35.7 °F 6.1 °F 26% 29.82 in 10.0 mi East 4.6 mph - N/A   Clear
7:53 AM 50.0 °F - 12.0 °F 22% 29.78 in 10.0 mi NE 4.6 mph - N/A   Clear
8:53 AM 57.9 °F - 12.9 °F 17% 29.77 in 10.0 mi Calm Calm - N/A   Clear
9:53 AM 64.9 °F - 12.9 °F 13% 29.70 in 10.0 mi West 12.7 mph - N/A   Clear
10:53 AM 69.1 °F - 12.9 °F 11% 29.69 in 10.0 mi SSW 12.7 mph 18.4 mph N/A   Clear
11:53 AM 69.1 °F - 12.0 °F 11% 29.71 in 10.0 mi SSW 13.8 mph 20.7 mph N/A   Clear
12:53 PM 70.0 °F - 10.9 °F 10% 29.71 in 10.0 mi SSW 10.4 mph 19.6 mph N/A   Clear
1:53 PM 70.0 °F - 9.0 °F 9% 29.73 in 10.0 mi WSW 15.0 mph 19.6 mph N/A   Clear
2:53 PM 69.1 °F - 9.0 °F 10% 29.77 in 10.0 mi SW 11.5 mph - N/A   Clear
3:53 PM 68.0 °F - 9.0 °F 10% 29.81 in 10.0 mi South 15.0 mph 20.7 mph N/A   Mostly Cloudy
4:53 PM 70.0 °F - 10.9 °F 10% 29.75 in 10.0 mi West 15.0 mph 20.7 mph N/A   Clear
5:53 PM 73.0 °F - 14.0 °F 11% 29.72 in 10.0 mi WSW 15.0 mph 19.6 mph N/A   Clear
6:53 PM 73.0 °F - 16.0 °F 11% 29.69 in 10.0 mi West 16.1 mph 26.5 mph N/A   Clear
7:53 PM 69.1 °F - 16.0 °F 13% 29.64 in 10.0 mi WSW 16.1 mph 23.0 mph N/A   Clear
8:53 PM 62.1 °F - 15.1 °F 16% 29.65 in 10.0 mi West 6.9 mph - N/A   Clear
9:53 PM 55.0 °F - 12.9 °F 19% 29.66 in 10.0 mi Calm Calm - N/A   Clear
10:53 PM 53.1 °F - 14.0 °F 21% 29.66 in 10.0 mi Calm Calm - N/A   Clear
11:53 PM 46.9 °F - 12.0 °F 24% 29.70 in 10.0 mi Calm Calm - N/A   Clear